Weather in Shu

Kazakhstan     43°36′42″N   73°45′36″E
temp.,
°C
wind,
m/s
gust,
m/s
humid.,
%
clouds,
%
prec.,
mm/h
press.,
hPa
HPBL,
m
17 may, mon
mon1700:00+14ese34470 0.0 101833
03:00+11se33540 0.0 101721
06:00+10s12620 0.0 101811
09:00+18ese23440 0.0 1018339
12:00+25e56270 0.0 10172012
15:00+27ene55220 0.0 10152321
18:00+26e45260 0.0 10152183
21:00+18e33470 0.0 101515
18 may, tue
tue1800:00+15ese34470 0.0 101432
03:00+13sse45570 0.0 101364
06:00+11s12640 0.0 101311
09:00+19se12420 0.0 1013266
12:00+26e12270 0.0 10111013
15:00+29nne11170 0.0 10091895
18:00+29sse21190 0.0 10092310
21:00+19sw33469 0.0 101018
19 may, wed
wed1900:00+18se33469 0.0 100912
03:00+15sse34540 0.0 100941
06:00+14sse45605 0.0 100957
09:00+22se45421 0.0 1008279
12:00+29se32240 0.0 1006947
15:00+31ene16175 0.0 10043892
18:00+30e552257 0.0 1003736
21:00+19sse7105599 0.7 1008154
20 may, thu
thu2000:00+16sse612652 0.7 1007202
03:00+15sse5106616 0.0 1006151
06:00+15s466037 0.0 100776
09:00+23sse33405 0.0 1008253
12:00+29n12265 0.0 10071080
15:00+32n47165 0.0 10064173
18:00+28ne9103531 0.0 1008965
21:00+20ene714510 0.1 1012353
21 may, fri
fri2100:00+14nne126568 0.3 101323
03:00+13ese12610 0.0 101321
06:00+12sw11645 0.0 101411
09:00+18sse11420 0.0 1015400
12:00+25ene34310 0.0 10141261
15:00+27ene76240 0.0 10131826
18:00+25ene76250 0.0 10131540
21:00+17ne510290 0.0 1015201